Skip to main content
ORNL DAAC HomeNASA Home

DAAC Home > Get Data > Field Campaigns > Atmospheric Carbon and Transport - America (ACT-America) > Landing page

ACT-America: L1 Meteorological and Aircraft Navigational Data

Overview

DOIhttps://doi.org/10.3334/ORNLDAAC/1574
Project
Release Date2018-07-03
Usage112 downloads

Description

This dataset provides aircraft navigational parameters and related meteorological data (often referred to as "housekeeping" data) in support of the research activities for the two aircraft that flew for the NASA Atmospheric Carbon and Transport-America (ACT-America) project. ACT-America's mission spans five years and includes five 6-week intensive field campaigns covering all 4 seasons and 3 regions of the central and eastern United States. Two instrumented aircraft platforms, the NASA Langley Beechcraft B200 King Air and the NASA Goddard Space Flight Center's C-130H Hercules, were used to collect high-quality in situ measurements across a variety of continental surfaces and atmospheric conditions. During these flights, aircraft positional, meteorological, and environmental data are recorded by a variety of instruments. For this dataset, measurements include, but are not limited to: latitude, longitude, altitude, ground speed, air temperature, and wind speed and direction. These data are incorporated into related ACT-America flight-instrumented datasets to provide geotrajectory file information for position, attitude, and altitude awareness of instrumented sampling.

Science Keywords

  • ATMOSPHERE
  • ATMOSPHERIC WINDS
  • UPPER LEVEL WINDS
  • WIND SPEED
  • ATMOSPHERE
  • ATMOSPHERIC WINDS
  • UPPER LEVEL WINDS
  • FLIGHT LEVEL WINDS
  • ATMOSPHERE
  • ATMOSPHERIC TEMPERATURE
  • UPPER AIR TEMPERATURE
  • DEW POINT TEMPERATURE
  • ATMOSPHERE
  • ATMOSPHERIC TEMPERATURE
  • UPPER AIR TEMPERATURE
  • VERTICAL PROFILES
  • SPECTRAL/ENGINEERING
  • PLATFORM CHARACTERISTICS
  • ATTITUDE CHARACTERISTICS
  • ATMOSPHERE
  • ALTITUDE
  • SPECTRAL/ENGINEERING
  • PLATFORM CHARACTERISTICS
  • AIRSPEED/GROUND SPEED
  • ATMOSPHERE
  • ATMOSPHERIC WINDS
  • UPPER LEVEL WINDS
  • WIND DIRECTION

Citation

Download citation from Datacite
RISBibTexOther
Crosscite Citation Formatter
Yang, M.M., J.D. Barrick, C. Sweeney, J.P. Digangi, and J.R. Bennett. 2018. ACT-America: L1 Meteorological and Aircraft Navigational Data. ORNL DAAC, Oak Ridge, Tennessee, USA. https://doi.org/10.3334/ORNLDAAC/1574

See our Data Citations and Acknowledgements policy for more information.

Data Files

Sign in to download files.

Data File (Granule)SizeDatesLatLon
ACTAMERICA-PDS_B200_20160727_R1_L1.nc 1.3MB 2016-07-27 43.52 to 37.02-76.33 to -78.94
ACTAMERICA-PDS_B200_20160727_R1_L2.ict 642.3KB 2016-07-27 39.71 to 37.01-76.37 to -77.94
ACTAMERICA-PDS_B200_20160727_R1_L1.ict 2.9MB 2016-07-27 43.52 to 37.02-76.33 to -78.94
ACTAMERICA-PDS_B200_20160726_R1_L2.nc 561.7KB 2016-07-26 41.24 to 37.07-75.48 to -76.99
ACTAMERICA-PDS_B200_20160726_R1_L2.ict 1.2MB 2016-07-26 41.24 to 37.07-75.48 to -76.99
ACTAMERICA-PDS_B200_20160726_R1_L1.nc 815.7KB 2016-07-26 41.24 to 36.89-76.37 to -78.49
ACTAMERICA-PDS_B200_20160726_R1_L1.ict 1.6MB 2016-07-26 41.24 to 36.89-76.37 to -78.49
ACTAMERICA-PDS_B200_20160725_R1.nc 1.2MB 2016-07-25 40.61 to 37.03-76.17 to -82.26
ACTAMERICA-PDS_B200_20160725_R1.ict 2.9MB 2016-07-25 40.61 to 37.03-76.17 to -82.26
ACTAMERICA-PDS_B200_20160722_R1_L2.nc 578.3KB 2016-07-22 40.01 to 37.00-76.37 to -78.62
ACTAMERICA-PDS_B200_20160722_R1_L2.ict 1.1MB 2016-07-22 40.01 to 37.00-76.37 to -78.62
ACTAMERICA-PDS_B200_20160722_R1_L1.nc 773.8KB 2016-07-22 39.80 to 37.02-76.36 to -79.39
ACTAMERICA-PDS_B200_20160722_R1_L1.ict 1.5MB 2016-07-22 39.80 to 37.02-76.36 to -79.39
ACTAMERICA-PDS_B200_20160721_R1.nc 962.1KB 2016-07-21 38.84 to 37.00-76.32 to -80.61
ACTAMERICA-PDS_B200_20160721_R1.ict 2.0MB 2016-07-21 38.84 to 37.00-76.32 to -80.61
ACTAMERICA-PDS_B200_20160718_R1.nc 1.4MB 2016-07-18 41.85 to 37.06-74.97 to -80.92
ACTAMERICA-PDS_B200_20160718_R1.ict 3.4MB 2016-07-18 41.85 to 37.06-74.97 to -80.92
ACTAMERICA-PDS_B200_20160715_R1.nc 696.2KB 2016-07-15 39.05 to 37.05-74.73 to -76.40
ACTAMERICA-PDS_B200_20160715_R1.ict 3.0MB 2016-07-15 39.05 to 37.05-74.73 to -76.40
ACTAMERICA-PDS_B200_20160711_R0.nc 839.7KB 2016-07-11 37.12 to 36.22-76.18 to -77.57
ACTAMERICA-PDS_B200_20160711_R0.ict 3.7MB 2016-07-11 37.12 to 36.22-76.18 to -77.57
ACTAMERICA-Hskping_c130_20170310_R0.nc 1.3MB 2017-03-10 38.09 to 34.28-73.68 to -80.96
ACTAMERICA-Hskping_c130_20170310_R0.ict 3.7MB 2017-03-10 38.09 to 34.28-73.68 to -80.96
ACTAMERICA-Hskping_c130_20170309_R0.nc 1.4MB 2017-03-09 40.42 to 37.59-74.60 to -78.17
ACTAMERICA-Hskping_c130_20170309_R0.ict 3.6MB 2017-03-09 40.42 to 37.59-74.60 to -78.17
ACTAMERICA-Hskping_c130_20170308_R0.nc 1.3MB 2017-03-08 42.18 to 34.34-73.67 to -78.51
ACTAMERICA-Hskping_c130_20170308_R0.ict 3.5MB 2017-03-08 42.18 to 34.34-73.67 to -78.51
ACTAMERICA-Hskping_c130_20170307_R0.nc 1.2MB 2017-03-07 43.07 to 37.59-75.40 to -87.15
ACTAMERICA-Hskping_c130_20170307_R0.ict 3.1MB 2017-03-07 43.07 to 37.59-75.40 to -87.15
ACTAMERICA-Hskping_c130_20170304_R0.nc 1.2MB 2017-03-04 42.14 to 36.17-75.22 to -80.80
ACTAMERICA-Hskping_c130_20170304_R0.ict 3.1MB 2017-03-04 42.14 to 36.17-75.22 to -80.80
ACTAMERICA-Hskping_c130_20170303_R0.nc 1.4MB 2017-03-03 40.92 to 37.49-75.40 to -82.03
ACTAMERICA-Hskping_c130_20170303_R0.ict 3.4MB 2017-03-03 40.92 to 37.49-75.40 to -82.03
ACTAMERICA-Hskping_c130_20170302_R0.nc 1.6MB 2017-03-02 40.92 to 36.63-75.37 to -82.74
ACTAMERICA-Hskping_c130_20170302_R0.ict 3.7MB 2017-03-02 40.92 to 36.63-75.37 to -82.74
ACTAMERICA-Hskping_c130_20170301_R0.nc 802.8KB 2017-03-01 38.67 to 36.89-73.53 to -78.62
ACTAMERICA-Hskping_c130_20170301_R0.ict 1.9MB 2017-03-01 38.67 to 36.89-73.53 to -78.62
ACTAMERICA-Hskping_c130_20170227_R0.nc 1.1MB 2017-02-27 41.48 to 37.06-75.43 to -96.76
ACTAMERICA-Hskping_c130_20170227_R0.ict 2.9MB 2017-02-27 41.48 to 37.06-75.43 to -96.76
ACTAMERICA-Hskping_c130_20170226_R0.nc 1.2MB 2017-02-26 42.12 to 37.76-94.11 to -96.76
ACTAMERICA-Hskping_c130_20170226_R0.ict 2.8MB 2017-02-26 42.12 to 37.76-94.11 to -96.76
ACTAMERICA-Hskping_c130_20170225_R0.nc 1.3MB 2017-02-25 43.88 to 40.52-89.27 to -97.38
ACTAMERICA-Hskping_c130_20170225_R0.ict 3.6MB 2017-02-25 43.88 to 40.52-89.27 to -97.38
ACTAMERICA-Hskping_c130_20170223_R0.nc 1.6MB 2017-02-23 40.88 to 37.09-96.42 to -102.45
ACTAMERICA-Hskping_c130_20170223_R0.ict 3.8MB 2017-02-23 40.88 to 37.09-96.42 to -102.45
ACTAMERICA-Hskping_c130_20170216_R0.nc 1.2MB 2017-02-16 43.46 to 39.90-96.34 to -101.64
ACTAMERICA-Hskping_c130_20170216_R0.ict 3.3MB 2017-02-16 43.46 to 39.90-96.34 to -101.64
ACTAMERICA-Hskping_c130_20170215_R0.nc 937.6KB 2017-02-15 41.05 to 34.91-96.76 to -101.84
ACTAMERICA-Hskping_c130_20170215_R0.ict 2.9MB 2017-02-15 41.05 to 34.91-96.76 to -101.84
ACTAMERICA-Hskping_c130_20170213_R0_L2.nc 902.7KB 2017-02-13 47.52 to 40.73-96.76 to -103.73
ACTAMERICA-Hskping_c130_20170213_R0_L2.ict 2.7MB 2017-02-13 47.52 to 40.73-96.76 to -103.73
ACTAMERICA-Hskping_c130_20170213_R0_L1.nc 541.6KB 2017-02-13 41.01 to 32.38-93.66 to -96.76
ACTAMERICA-Hskping_c130_20170213_R0_L1.ict 1.3MB 2017-02-13 41.01 to 32.38-93.66 to -96.76
ACTAMERICA-Hskping_c130_20170212_R0.nc 1.5MB 2017-02-12 37.13 to 27.23-93.59 to -97.35
ACTAMERICA-Hskping_c130_20170212_R0.ict 3.7MB 2017-02-12 37.13 to 27.23-93.59 to -97.35
ACTAMERICA-Hskping_c130_20170206_R0.nc 782.1KB 2017-02-06 32.57 to 32.33-86.93 to -93.87
ACTAMERICA-Hskping_c130_20170206_R0.ict 1.8MB 2017-02-06 32.57 to 32.33-86.93 to -93.87
ACTAMERICA-Hskping_c130_20170204_R0.nc 1.4MB 2017-02-04 32.75 to 29.00-86.56 to -94.94
ACTAMERICA-Hskping_c130_20170204_R0.ict 3.3MB 2017-02-04 32.75 to 29.00-86.56 to -94.94
ACTAMERICA-Hskping_c130_20170201_R0.nc 1.2MB 2017-02-01 38.76 to 28.86-93.77 to -94.61
ACTAMERICA-Hskping_c130_20170201_R0.ict 3.2MB 2017-02-01 38.76 to 28.86-93.77 to -94.61
ACTAMERICA-Hskping_c130_20170130_R0_L2.nc 877.4KB 2017-01-30 37.09 to 32.44-76.35 to -93.86
ACTAMERICA-Hskping_c130_20170130_R0_L2.ict 3.0MB 2017-01-30 37.09 to 32.44-76.35 to -93.86
ACTAMERICA-Hskping_c130_20170130_R0_L1.nc 219.8KB 2017-01-30 37.94 to 37.08-75.46 to -76.38
ACTAMERICA-Hskping_c130_20170130_R0_L1.ict 302.9KB 2017-01-30 37.94 to 37.08-75.46 to -76.38
ACTAMERICA-Hskping_c130_20170125_R0.nc 757.1KB 2017-01-25 37.99 to 36.08-75.38 to -77.68
ACTAMERICA-Hskping_c130_20170125_R0.ict 2.0MB 2017-01-25 37.99 to 36.08-75.38 to -77.68
ACTAMERICA-Hskping_c130_20160829_R2.nc 941.2KB 2016-08-29 37.94 to 32.38-75.46 to -93.83
ACTAMERICA-Hskping_c130_20160829_R2.ict 2.5MB 2016-08-29 37.94 to 32.38-75.46 to -93.83
ACTAMERICA-Hskping_c130_20160828_R2.nc 1.1MB 2016-08-28 34.18 to 30.93-91.29 to -95.53
ACTAMERICA-Hskping_c130_20160828_R2.ict 2.3MB 2016-08-28 34.18 to 30.93-91.29 to -95.53
ACTAMERICA-Hskping_c130_20160827_R2.nc 1.4MB 2016-08-27 33.88 to 30.44-85.93 to -93.87
ACTAMERICA-Hskping_c130_20160827_R2.ict 3.4MB 2016-08-27 33.88 to 30.44-85.93 to -93.87
ACTAMERICA-Hskping_c130_20160824_R2.nc 1.5MB 2016-08-24 32.48 to 28.56-93.79 to -96.35
ACTAMERICA-Hskping_c130_20160824_R2.ict 3.7MB 2016-08-24 32.48 to 28.56-93.79 to -96.35
ACTAMERICA-Hskping_c130_20160822_R2.nc 1.3MB 2016-08-22 36.31 to 32.40-89.43 to -95.45
ACTAMERICA-Hskping_c130_20160822_R2.ict 3.3MB 2016-08-22 36.31 to 32.40-89.43 to -95.45
ACTAMERICA-Hskping_c130_20160821_R2.nc 1.4MB 2016-08-21 36.65 to 29.30-89.16 to -93.97
ACTAMERICA-Hskping_c130_20160821_R2.ict 3.8MB 2016-08-21 36.65 to 29.30-89.16 to -93.97
ACTAMERICA-Hskping_c130_20160820_R2.nc 1.4MB 2016-08-20 38.33 to 29.29-92.53 to -95.76
ACTAMERICA-Hskping_c130_20160820_R2.ict 3.4MB 2016-08-20 38.33 to 29.29-92.53 to -95.76
ACTAMERICA-Hskping_c130_20160819_R2.nc 1.2MB 2016-08-19 32.61 to 29.18-90.88 to -94.11
ACTAMERICA-Hskping_c130_20160819_R2.ict 3.1MB 2016-08-19 32.61 to 29.18-90.88 to -94.11
ACTAMERICA-Hskping_c130_20160816_R2.nc 1.0MB 2016-08-16 40.87 to 32.17-91.51 to -96.78
ACTAMERICA-Hskping_c130_20160816_R2.ict 2.5MB 2016-08-16 40.87 to 32.17-91.51 to -96.78
ACTAMERICA-Hskping_c130_20160814_R2.nc 1.3MB 2016-08-14 42.19 to 38.72-91.23 to -97.52
ACTAMERICA-Hskping_c130_20160814_R2.ict 3.1MB 2016-08-14 42.19 to 38.72-91.23 to -97.52
ACTAMERICA-Hskping_c130_20160813_R2.nc 1.3MB 2016-08-13 43.88 to 40.76-91.77 to -98.03
ACTAMERICA-Hskping_c130_20160813_R2.ict 3.0MB 2016-08-13 43.88 to 40.76-91.77 to -98.03
ACTAMERICA-Hskping_c130_20160812_R2.nc 1.2MB 2016-08-12 42.87 to 37.82-88.94 to -97.92
ACTAMERICA-Hskping_c130_20160812_R2.ict 3.3MB 2016-08-12 42.87 to 37.82-88.94 to -97.92
ACTAMERICA-Hskping_c130_20160810_R2.nc 1.3MB 2016-08-10 43.58 to 40.78-91.06 to -97.64
ACTAMERICA-Hskping_c130_20160810_R2.ict 3.0MB 2016-08-10 43.58 to 40.78-91.06 to -97.64
ACTAMERICA-Hskping_c130_20160809_R2.nc 1.2MB 2016-08-09 40.96 to 37.83-91.46 to -97.00
ACTAMERICA-Hskping_c130_20160809_R2.ict 2.8MB 2016-08-09 40.96 to 37.83-91.46 to -97.00
ACTAMERICA-Hskping_c130_20160808_R2.nc 1.1MB 2016-08-08 41.67 to 35.63-94.83 to -98.80
ACTAMERICA-Hskping_c130_20160808_R2.ict 2.8MB 2016-08-08 41.67 to 35.63-94.83 to -98.80
ACTAMERICA-Hskping_c130_20160805_R2.nc 935.3KB 2016-08-05 49.11 to 40.75-96.76 to -104.27
ACTAMERICA-Hskping_c130_20160805_R2.ict 3.4MB 2016-08-05 49.11 to 40.75-96.76 to -104.27
ACTAMERICA-Hskping_c130_20160804_R2.nc 1.2MB 2016-08-04 44.83 to 38.48-91.91 to -100.17
ACTAMERICA-Hskping_c130_20160804_R2.ict 3.2MB 2016-08-04 44.83 to 38.48-91.91 to -100.17
ACTAMERICA-Hskping_c130_20160803_R2.nc 1.1MB 2016-08-03 46.48 to 40.77-96.76 to -106.05
ACTAMERICA-Hskping_c130_20160803_R2.ict 3.1MB 2016-08-03 46.48 to 40.77-96.76 to -106.05
ACTAMERICA-Hskping_c130_20160801_R2.nc 850.0KB 2016-08-01 40.95 to 36.14-76.70 to -96.77
ACTAMERICA-Hskping_c130_20160801_R2.ict 2.5MB 2016-08-01 40.95 to 36.14-76.70 to -96.77
ACTAMERICA-Hskping_c130_20160727_R1.nc 843.1KB 2016-07-27 43.27 to 37.90-75.41 to -78.80
ACTAMERICA-Hskping_c130_20160727_R1.ict 3.1MB 2016-07-27 43.27 to 37.90-75.41 to -78.80
ACTAMERICA-Hskping_c130_20160726_R1.nc 788.9KB 2016-07-26 41.12 to 36.69-75.43 to -78.64
ACTAMERICA-Hskping_c130_20160726_R1.ict 2.9MB 2016-07-26 41.12 to 36.69-75.43 to -78.64
ACTAMERICA-Hskping_c130_20160725_R1.nc 805.5KB 2016-07-25 41.89 to 37.60-75.45 to -85.18
ACTAMERICA-Hskping_c130_20160725_R1.ict 2.9MB 2016-07-25 41.89 to 37.60-75.45 to -85.18
ACTAMERICA-Hskping_c130_20160722_R1.nc 860.5KB 2016-07-22 40.26 to 37.61-75.44 to -79.15
ACTAMERICA-Hskping_c130_20160722_R1.ict 2.9MB 2016-07-22 40.26 to 37.61-75.44 to -79.15
ACTAMERICA-Hskping_c130_20160721_R0.nc 1.1MB 2016-07-21 39.39 to 37.32-75.45 to -81.20
ACTAMERICA-Hskping_c130_20160721_R0.ict 3.4MB 2016-07-21 39.39 to 37.32-75.45 to -81.20
ACTAMERICA-Hskping_c130_20160719_R1.nc 972.5KB 2016-07-19 40.85 to 37.28-73.47 to -80.04
ACTAMERICA-Hskping_c130_20160719_R1.ict 3.6MB 2016-07-19 40.85 to 37.28-73.47 to -80.04
ACTAMERICA-Hskping_c130_20160718_R1.nc 863.6KB 2016-07-18 41.92 to 37.89-73.40 to -80.96
ACTAMERICA-Hskping_c130_20160718_R1.ict 3.1MB 2016-07-18 41.92 to 37.89-73.40 to -80.96
ACTAMERICA-Hskping_c130_20160715_R1.nc 566.8KB 2016-07-15 39.05 to 37.02-74.73 to -76.39
ACTAMERICA-Hskping_c130_20160715_R1.ict 1.9MB 2016-07-15 39.05 to 37.02-74.73 to -76.39
ACTAMERICA-Hskping_c130_20160711_R1.nc 786.8KB 2016-07-11 38.93 to 37.39-71.91 to -75.58
ACTAMERICA-Hskping_c130_20160711_R1.ict 3.1MB 2016-07-11 38.93 to 37.39-71.91 to -75.58
ACTAMERICA-PDS_B200_20160727_R1_L2.nc 387.2KB 2016-07-27 39.71 to 37.01-76.37 to -77.94
ACTAMERICA-PDS_B200_20160803_R1_L1.ict 3.0MB 2016-08-03 46.23 to 40.81-96.76 to -106.46
ACTAMERICA-PDS_B200_20160803_R1_L1.nc 1.2MB 2016-08-03 46.23 to 40.81-96.76 to -106.46
ACTAMERICA-PDS_B200_20160803_R1_L2.ict 1.9MB 2016-08-03 43.26 to 40.86-96.77 to -106.49
ACTAMERICA-PDS_B200_20160803_R1_L2.nc 888.8KB 2016-08-03 43.26 to 40.86-96.77 to -106.49
ACTAMERICA-PDS_B200_20160804_R1.ict 2.7MB 2016-08-04 42.59 to 39.14-93.25 to -100.06
ACTAMERICA-PDS_B200_20160804_R1.nc 1.1MB 2016-08-04 42.59 to 39.14-93.25 to -100.06
ACTAMERICA-PDS_B200_20160805_R1_L1.ict 2.9MB 2016-08-05 48.31 to 40.84-96.76 to -103.85
ACTAMERICA-PDS_B200_20160805_R1_L1.nc 1.2MB 2016-08-05 48.31 to 40.84-96.76 to -103.85
ACTAMERICA-PDS_B200_20160805_R1_L2.ict 2.1MB 2016-08-05 to 2016-08-06 48.28 to 40.68-96.76 to -103.57
ACTAMERICA-PDS_B200_20160805_R1_L2.nc 892.5KB 2016-08-05 to 2016-08-06 48.28 to 40.68-96.76 to -103.57
ACTAMERICA-PDS_B200_20160808_R1.ict 2.7MB 2016-08-08 41.65 to 35.67-96.48 to -97.25
ACTAMERICA-PDS_B200_20160808_R1.nc 1.2MB 2016-08-08 41.65 to 35.67-96.48 to -97.25
ACTAMERICA-PDS_B200_20160809_R1.ict 2.6MB 2016-08-09 40.89 to 38.71-91.96 to -96.93
ACTAMERICA-PDS_B200_20160809_R1.nc 1.2MB 2016-08-09 40.89 to 38.71-91.96 to -96.93
ACTAMERICA-PDS_B200_20160812_R1.ict 2.7MB 2016-08-12 40.88 to 37.81-89.91 to -96.76
ACTAMERICA-PDS_B200_20160812_R1.nc 1.1MB 2016-08-12 40.88 to 37.81-89.91 to -96.76
ACTAMERICA-PDS_B200_20160813_R1.ict 2.6MB 2016-08-13 43.12 to 40.81-92.69 to -97.82
ACTAMERICA-PDS_B200_20160813_R1.nc 1.2MB 2016-08-13 43.12 to 40.81-92.69 to -97.82
ACTAMERICA-PDS_B200_20160814_R1.ict 2.2MB 2016-08-14 41.16 to 39.86-92.12 to -96.95
ACTAMERICA-PDS_B200_20160814_R1.nc 967.3KB 2016-08-14 41.16 to 39.86-92.12 to -96.95
ACTAMERICA-PDS_B200_20160816_R1_L1.ict 1.9MB 2016-08-16 40.86 to 33.66-94.22 to -96.76
ACTAMERICA-PDS_B200_20160816_R1_L1.nc 740.9KB 2016-08-16 40.86 to 33.66-94.22 to -96.76
ACTAMERICA-PDS_B200_20160816_R1_L2.ict 824.4KB 2016-08-16 33.87 to 32.29-93.58 to -96.67
ACTAMERICA-PDS_B200_20160816_R1_L2.nc 419.2KB 2016-08-16 33.87 to 32.29-93.58 to -96.67
ACTAMERICA-PDS_B200_20160819_R1.ict 2.5MB 2016-08-19 32.62 to 29.30-90.97 to -94.16
ACTAMERICA-PDS_B200_20160819_R1.nc 1.0MB 2016-08-19 32.62 to 29.30-90.97 to -94.16
ACTAMERICA-PDS_B200_20160820_R1_L1.ict 2.4MB 2016-08-20 35.36 to 29.32-93.66 to -94.92
ACTAMERICA-PDS_B200_20160820_R1_L1.nc 1.1MB 2016-08-20 35.36 to 29.32-93.66 to -94.92
ACTAMERICA-PDS_B200_20160820_R1_L2.ict 1.8MB 2016-08-20 37.53 to 32.45-93.63 to -95.74
ACTAMERICA-PDS_B200_20160820_R1_L2.nc 798.8KB 2016-08-20 37.53 to 32.45-93.63 to -95.74
ACTAMERICA-PDS_B200_20160821_R1_L1.ict 2.8MB 2016-08-21 36.29 to 32.13-88.83 to -93.87
ACTAMERICA-PDS_B200_20160821_R1_L1.nc 1.1MB 2016-08-21 36.29 to 32.13-88.83 to -93.87
ACTAMERICA-PDS_B200_20160821_R1_L2.ict 2.2MB 2016-08-21 36.15 to 32.32-90.07 to -93.85
ACTAMERICA-PDS_B200_20160821_R1_L2.nc 819.6KB 2016-08-21 36.15 to 32.32-90.07 to -93.85
ACTAMERICA-PDS_B200_20160822_R1.ict 2.8MB 2016-08-22 35.37 to 32.35-90.76 to -94.82
ACTAMERICA-PDS_B200_20160822_R1.nc 1.1MB 2016-08-22 35.37 to 32.35-90.76 to -94.82
ACTAMERICA-PDS_B200_20160823_R1.ict 2.1MB 2016-08-23 32.48 to 28.65-93.79 to -95.66
ACTAMERICA-PDS_B200_20160823_R1.nc 782.4KB 2016-08-23 32.48 to 28.65-93.79 to -95.66
ACTAMERICA-PDS_B200_20160824_R1.ict 2.2MB 2016-08-24 32.48 to 28.68-93.78 to -96.35
ACTAMERICA-PDS_B200_20160824_R1.nc 961.3KB 2016-08-24 32.48 to 28.68-93.78 to -96.35
ACTAMERICA-PDS_B200_20160827_R1.ict 3.1MB 2016-08-27 33.49 to 30.53-89.13 to -93.83
ACTAMERICA-PDS_B200_20160827_R1.nc 1.4MB 2016-08-27 33.49 to 30.53-89.13 to -93.83
ACTAMERICA-PDS_B200_20160828_R1.ict 2.0MB 2016-08-28 34.04 to 30.81-92.54 to -93.99
ACTAMERICA-PDS_B200_20160828_R1.nc 939.9KB 2016-08-28 34.04 to 30.81-92.54 to -93.99
ACTAMERICA-PDS_B200_20170121_R0.ict 2.0MB 2017-01-21 37.20 to 36.05-76.22 to -77.70
ACTAMERICA-PDS_B200_20170121_R0.nc 611.5KB 2017-01-21 37.20 to 36.05-76.22 to -77.70
ACTAMERICA-PDS_B200_20170125_R0.ict 3.3MB 2017-01-25 37.09 to 36.08-76.32 to -77.68
ACTAMERICA-PDS_B200_20170125_R0.nc 988.9KB 2017-01-25 37.09 to 36.08-76.32 to -77.68
ACTAMERICA-PDS_B200_20170130_R0_L1.ict 3.7MB 2017-01-30 37.08 to 34.49-76.36 to -86.77
ACTAMERICA-PDS_B200_20170130_R0_L1.nc 981.5KB 2017-01-30 37.08 to 34.49-76.36 to -86.77
ACTAMERICA-PDS_B200_20170130_R0_L2.ict 2.5MB 2017-01-30 34.69 to 32.45-86.76 to -93.82
ACTAMERICA-PDS_B200_20170130_R0_L2.nc 725.9KB 2017-01-30 34.69 to 32.45-86.76 to -93.82
ACTAMERICA-PDS_B200_20170201_R0.ict 5.2MB 2017-02-01 39.12 to 32.43-93.82 to -94.62
ACTAMERICA-PDS_B200_20170201_R0.nc 1.5MB 2017-02-01 39.12 to 32.43-93.82 to -94.62
ACTAMERICA-PDS_B200_20170204_R0.ict 5.0MB 2017-02-04 32.50 to 30.57-89.11 to -93.98
ACTAMERICA-PDS_B200_20170204_R0.nc 1.5MB 2017-02-04 32.50 to 30.57-89.11 to -93.98
ACTAMERICA-PDS_B200_20170206_R0.ict 4.8MB 2017-02-06 34.61 to 32.42-88.63 to -94.54
ACTAMERICA-PDS_B200_20170206_R0.nc 1.3MB 2017-02-06 34.61 to 32.42-88.63 to -94.54
ACTAMERICA-PDS_B200_20170208_R0_L1.ict 4.0MB 2017-02-08 37.15 to 30.90-93.79 to -94.62
ACTAMERICA-PDS_B200_20170208_R0_L1.nc 1.2MB 2017-02-08 37.15 to 30.90-93.79 to -94.62
ACTAMERICA-PDS_B200_20170208_R0_L2.ict 3.2MB 2017-02-08 38.16 to 32.39-93.81 to -94.61
ACTAMERICA-PDS_B200_20170208_R0_L2.nc 943.1KB 2017-02-08 38.16 to 32.39-93.81 to -94.61
ACTAMERICA-PDS_B200_20170209_R0_L1.ict 4.8MB 2017-02-09 33.28 to 31.50-91.48 to -95.17
ACTAMERICA-PDS_B200_20170209_R0_L1.nc 1.4MB 2017-02-09 33.28 to 31.50-91.48 to -95.17
ACTAMERICA-PDS_B200_20170209_R0_L2.ict 2.6MB 2017-02-09 32.50 to 31.51-91.58 to -95.11
ACTAMERICA-PDS_B200_20170209_R0_L2.nc 808.9KB 2017-02-09 32.50 to 31.51-91.58 to -95.11
ACTAMERICA-PDS_B200_20170210_R0_L1.ict 4.5MB 2017-02-10 33.29 to 31.74-91.44 to -95.11
ACTAMERICA-PDS_B200_20170210_R0_L1.nc 1.3MB 2017-02-10 33.29 to 31.74-91.44 to -95.11
ACTAMERICA-PDS_B200_20170210_R0_L2.ict 2.9MB 2017-02-10 33.35 to 31.80-91.44 to -95.18
ACTAMERICA-PDS_B200_20170210_R0_L2.nc 905.1KB 2017-02-10 33.35 to 31.80-91.44 to -95.18
ACTAMERICA-PDS_B200_20170212_R0.ict 5.4MB 2017-02-12 35.10 to 29.24-93.80 to -96.42
ACTAMERICA-PDS_B200_20170212_R0.nc 1.5MB 2017-02-12 35.10 to 29.24-93.80 to -96.42
ACTAMERICA-PDS_B200_20170213_R0_L1.ict 3.1MB 2017-02-13 40.92 to 32.44-93.82 to -96.75
ACTAMERICA-PDS_B200_20170213_R0_L1.nc 894.9KB 2017-02-13 40.92 to 32.44-93.82 to -96.75
ACTAMERICA-PDS_B200_20170213_R0_L2.ict 5.3MB 2017-02-13 45.00 to 40.79-96.74 to -102.66
ACTAMERICA-PDS_B200_20170213_R0_L2.nc 1.5MB 2017-02-13 45.00 to 40.79-96.74 to -102.66
ACTAMERICA-PDS_B200_20170215_R0_L1.ict 5.4MB 2017-02-15 40.94 to 35.03-96.76 to -101.45
ACTAMERICA-PDS_B200_20170215_R0_L1.nc 1.6MB 2017-02-15 40.94 to 35.03-96.76 to -101.45
ACTAMERICA-PDS_B200_20170215_R0_L2.ict 2.5MB 2017-02-15 to 2017-02-16 40.94 to 37.76-96.77 to -101.43
ACTAMERICA-PDS_B200_20170215_R0_L2.nc 649.6KB 2017-02-15 to 2017-02-16 40.94 to 37.76-96.77 to -101.43
ACTAMERICA-PDS_B200_20170216_R0.ict 4.4MB 2017-02-16 43.28 to 40.29-96.76 to -100.17
ACTAMERICA-PDS_B200_20170216_R0.nc 1.2MB 2017-02-16 43.28 to 40.29-96.76 to -100.17
ACTAMERICA-PDS_B200_20170217_R0_L1.ict 4.4MB 2017-02-17 44.34 to 40.76-91.28 to -96.76
ACTAMERICA-PDS_B200_20170217_R0_L1.nc 1.3MB 2017-02-17 44.34 to 40.76-91.28 to -96.76
ACTAMERICA-PDS_B200_20170217_R0_L2.ict 3.6MB 2017-02-17 44.01 to 40.86-93.57 to -97.93
ACTAMERICA-PDS_B200_20170217_R0_L2.nc 1.1MB 2017-02-17 44.01 to 40.86-93.57 to -97.93
ACTAMERICA-PDS_B200_20170219_R0_L1.ict 4.0MB 2017-02-19 40.98 to 39.16-96.70 to -101.73
ACTAMERICA-PDS_B200_20170219_R0_L1.nc 1.2MB 2017-02-19 40.98 to 39.16-96.70 to -101.73
ACTAMERICA-PDS_B200_20170219_R0_L2.ict 3.7MB 2017-02-19 40.90 to 38.93-96.75 to -101.70
ACTAMERICA-PDS_B200_20170219_R0_L2.nc 1.1MB 2017-02-19 40.90 to 38.93-96.75 to -101.70
ACTAMERICA-PDS_B200_20170220_R0_L1.ict 5.0MB 2017-02-20 40.96 to 40.36-92.57 to -99.03
ACTAMERICA-PDS_B200_20170220_R0_L1.nc 1.4MB 2017-02-20 40.96 to 40.36-92.57 to -99.03
ACTAMERICA-PDS_B200_20170220_R0_L2.ict 3.5MB 2017-02-20 41.01 to 40.17-96.75 to -101.05
ACTAMERICA-PDS_B200_20170220_R0_L2.nc 1.0MB 2017-02-20 41.01 to 40.17-96.75 to -101.05
ACTAMERICA-PDS_B200_20170223_R0.ict 4.3MB 2017-02-23 40.91 to 37.33-96.41 to -98.71
ACTAMERICA-PDS_B200_20170223_R0.nc 1.2MB 2017-02-23 40.91 to 37.33-96.41 to -98.71
ACTAMERICA-PDS_B200_20170225_R0.ict 4.8MB 2017-02-25 42.69 to 40.86-90.12 to -96.90
ACTAMERICA-PDS_B200_20170225_R0.nc 1.3MB 2017-02-25 42.69 to 40.86-90.12 to -96.90
ACTAMERICA-PDS_B200_20170227_R0_L1.ict 3.4MB 2017-02-27 41.48 to 40.80-85.17 to -96.76
ACTAMERICA-PDS_B200_20170227_R0_L1.nc 997.7KB 2017-02-27 41.48 to 40.80-85.17 to -96.76
ACTAMERICA-PDS_B200_20170227_R0_L2.ict 3.0MB 2017-02-27 40.97 to 37.07-76.37 to -85.22
ACTAMERICA-PDS_B200_20170227_R0_L2.nc 931.0KB 2017-02-27 40.97 to 37.07-76.37 to -85.22
ACTAMERICA-PDS_B200_20170301_R0.ict 3.2MB 2017-03-01 38.39 to 36.90-74.40 to -78.09
ACTAMERICA-PDS_B200_20170301_R0.nc 951.4KB 2017-03-01 38.39 to 36.90-74.40 to -78.09
ACTAMERICA-PDS_B200_20170304_R0.ict 5.1MB 2017-03-04 41.22 to 37.11-76.20 to -78.95
ACTAMERICA-PDS_B200_20170304_R0.nc 1.5MB 2017-03-04 41.22 to 37.11-76.20 to -78.95
ACTAMERICA-PDS_B200_20170307_R0.ict 4.8MB 2017-03-07 39.93 to 37.01-76.27 to -81.86
ACTAMERICA-PDS_B200_20170307_R0.nc 1.4MB 2017-03-07 39.93 to 37.01-76.27 to -81.86
ACTAMERICA-PDS_B200_20170308_R0_L1.ict 3.2MB 2017-03-08 41.31 to 36.44-76.32 to -78.21
ACTAMERICA-PDS_B200_20170308_R0_L1.nc 1.0MB 2017-03-08 41.31 to 36.44-76.32 to -78.21
ACTAMERICA-PDS_B200_20170308_R0_L2.ict 2.1MB 2017-03-08 40.90 to 36.38-76.32 to -78.06
ACTAMERICA-PDS_B200_20170308_R0_L2.nc 665.3KB 2017-03-08 40.90 to 36.38-76.32 to -78.06

Companion Files

Expand for companion files
Toggle Companion Files

Sign in to download files.

Dataset has 4 companion files.

  • Platform_C130.pdf
  • ACTAMERICA_Hskping.pdf
  • DC8_Experimenter_Handbook_Jan2011v2.pdf
  • Platform_B200.pdf

Advanced Data Access through THREDDS Data Sever